Weather in Komsomolets

Russia / Udmurt Republic     57°31′30″N   53°01′54″E
temp.,
°C
wind,
m/s
gust,
m/s
humid.,
%
clouds,
%
prec.,
mm/h
press.,
hPa
HPBL,
m
16 may, sun
sun1601:00+20sw4146157 0.0 1017420
04:00+17ssw312653 0.0 1017229
07:00+21sw3105422 0.0 1017317
10:00+27sw510325 0.0 10171060
13:00+30sw611245 0.0 10163348
16:00+30sw51026100 0.0 10153494
19:00+25sw51236100 0.0 10151155
22:00+19ssw39563 0.0 1015164
17 may, mon
mon1701:00+16sw25689 0.0 101693
04:00+15sw25776 0.0 101690
07:00+19wsw366872 0.0 1017310
10:00+24wsw47460 0.0 10171285
13:00+27wsw593728 0.0 10162384
16:00+27w593437 0.0 10162738
19:00+23nw494848 0.0 1017799
22:00+17wnw27699 0.0 1018125
18 may, tue
tue1801:00+14nnw248241 0.0 101983
04:00+12n259210 0.0 102098
07:00+15n346976 0.0 1021439
10:00+19n3448100 0.0 1021947
13:00+22nne2340100 0.0 10211308
16:00+24ne223561 0.0 10211628
19:00+21e36505 0.0 1021228
22:00+14ese397028 0.0 1022205
19 may, wed
wed1901:00+12ese310716 0.0 1023204
04:00+11ese39885 0.0 1024200
07:00+14se47673 0.0 1024386
10:00+19ese45465 0.0 1023806
13:00+22ese44357 0.0 10221159
16:00+23ese443253 0.0 10211343
19:00+20ese364897 0.0 1020197
22:00+14se2766100 0.0 1021115
20 may, thu
thu2001:00+13se396798 0.0 1020148
04:00+12se287164 0.0 1021133
07:00+17sse375787 0.0 1020240
10:00+23sse4737100 0.0 10191237
13:00+25sse572867 0.0 10181897
16:00+25s57292 0.0 10172123
19:00+22s38440 0.0 1017409
22:00+18ssw2664100 0.0 1017171